{"data":{"norad_id":65769,"intl_designator":"2025-217H","name":"KUIPER-00148","alt_names":[],"object_type":"PAYLOAD","status":"ACTIVE","operator":null,"country":"US","launch_date":"2025-09-25","launch_site_code":"AFETR","launch_vehicle":null,"mission":null,"orbit_class":"UNKNOWN","rcs_meters":null,"size_class":null,"mass_kg":null,"dimensions":null,"purposes":[],"wikipedia_slug":null,"has_3d_model":false,"image_url":null,"decayed_at":null,"tle_current":{"epoch":"2026-09-20T23:13:00.592608Z","epoch_age_seconds":106340,"freshness":"FRESH","line1":"1 65769U 25217H   26263.96736797  .00001768  00000+0  26088-3 0  9991","line2":"2 65769  51.9034 239.6109 0000682  75.4520 284.6518 14.79937892 54075","mean_motion":14.79937892,"eccentricity":6.82e-5,"inclination_deg":51.9034,"raan_deg":239.6109,"arg_perigee_deg":75.452,"mean_anomaly_deg":284.6518,"bstar":0.00026088,"rev_number":5407,"period_min":97.301380536583,"perigee_km":629.04226416566,"apogee_km":629.99810860589,"semimajor_km":7007.6571863858,"source":"CELESTRAK","updated_at":"2026-09-21T09:00:15.558206Z"}}}